DW1223 Weather Reports


time (UTC)temp
C
wind
direction
speed
KPH
gust
KPH
rain 1hr
cm
rain 24hr
cm
rain mn
cm
humidity
%
barometer
mb
20260505053540 6 276 4.8 4.8 0.00 0.00 0.00 67 1015.9
20260505053037 6 277 3.2 4.8 0.00 0.00 0.00 67 1015.7
20260505052534 6 281 4.8 4.8 0.00 0.00 0.00 66 1015.7
20260505052031 6 274 4.8 4.8 0.00 0.00 0.00 62 1015.6
20260505051528 7 274 3.2 4.8 0.00 0.00 0.00 62 1015.4
20260505051026 6 274 3.2 3.2 0.00 0.00 0.00 62 1015.4
20260505050524 7 316 1.6 1.6 0.00 0.00 0.00 61 1015.4
20260505041451 7 270 4.8 4.8 0.00 0.00 0.00 59 1015.4
20260505040949 7 312 1.6 3.2 0.00 0.00 0.00 60 1015.5
20260505040446 8 273 3.2 3.2 0.00 0.00 0.00 60 1015.4
20260505035943 8 283 3.2 3.2 0.00 0.00 0.00 58 1015.1
20260505035439 8 5 0.0 0.0 0.00 0.00 0.00 57 1015.0
20260505034936 8 251 3.2 3.2 0.00 0.00 0.00 53 1015.0
20260505034432 9 315 1.6 1.6 0.00 0.00 0.00 52 1014.9
20260505033930 10 74 1.6 1.6 0.00 0.00 0.00 53 1015.1
20260505033426 10 310 1.6 3.2 0.00 0.00 0.00 49 1015.1
20260505032925 10 300 3.2 3.2 0.00 0.00 0.00 47 1014.9
20260505032422 10 305 4.8 4.8 0.00 0.00 0.00 45 1014.9
20260505031918 11 336 1.6 3.2 0.00 0.00 0.00 46 1014.8
20260505031415 11 294 3.2 3.2 0.00 0.00 0.00 45 1014.8
20260505030912 11 294 3.2 4.8 0.00 0.00 0.00 45 1014.8
20260505030408 11 324 4.8 4.8 0.00 0.00 0.00 45 1014.8
20260505025903 11 323 3.2 4.8 0.00 0.00 0.00 45 1014.7
20260505025401 11 307 3.2 4.8 0.00 0.00 0.00 44 1014.6
20260505024900 11 312 4.8 6.4 0.00 0.00 0.00 44 1014.6
20260505024357 11 3 4.8 6.4 0.00 0.00 0.00 43 1014.7
20260505023854 11 299 6.4 6.4 0.00 0.00 0.00 44 1014.5
20260505023351 12 298 11.3 12.9 0.00 0.00 0.00 43 1014.6
20260505022848 12 31 4.8 6.4 0.00 0.00 0.00 44 1014.5
20260505022345 12 10 9.7 14.5 0.00 0.00 0.00 44 1014.6
20260505021842 12 5 14.5 22.5 0.00 0.00 0.00 43 1014.5
20260505021338 12 20 9.7 11.3 0.00 0.00 0.00 43 1014.4
20260505020834 12 41 6.4 6.4 0.00 0.00 0.00 43 1014.2
20260505020330 12 12 6.4 11.3 0.00 0.00 0.00 43 1014.2
20260505015827 12 3 8.0 12.9 0.00 0.00 0.00 43 1014.2
20260505015324 12 8 6.4 9.7 0.00 0.00 0.00 43 1014.5
20260505014821 13 6 4.8 6.4 0.00 0.00 0.00 43 1014.5
20260505014318 13 7 6.4 6.4 0.00 0.00 0.00 43 1014.4
20260505013815 13 0 11.3 14.5 0.00 0.00 0.00 42 1014.2
20260505013312 13 15 3.2 4.8 0.00 0.00 0.00 43 1014.4
20260505012811 13 350 8.0 11.3 0.00 0.00 0.00 42 1014.1
20260505012308 13 4 8.0 11.3 0.00 0.00 0.00 42 1014.4
20260505011804 13 3 6.4 6.4 0.00 0.00 0.00 41 1014.2
20260505011301 14 30 1.6 1.6 0.00 0.00 0.00 44 1014.2
20260505010757 14 345 12.9 16.1 0.00 0.00 0.00 41 1014.2
20260505010253 14 2 8.0 9.7 0.00 0.00 0.00 41 1014.4
20260505005749 14 8 8.0 12.9 0.00 0.00 0.00 40 1014.1
20260505005246 14 355 0.0 1.6 0.00 0.00 0.00 43 1014.1
20260505004743 14 33 3.2 3.2 0.00 0.00 0.00 43 1014.2
20260505004239 13 4 11.3 12.9 0.00 0.00 0.00 42 1014.1
20260505003737 14 21 6.4 11.3 0.00 0.00 0.00 42 1014.4
20260505003235 14 14 3.2 4.8 0.00 0.00 0.00 43 1014.1
20260505002731 15 357 12.9 16.1 0.00 0.00 0.00 41 1014.1
20260505002228 15 356 3.2 3.2 0.00 0.00 0.00 41 1014.1
20260505001725 15 50 3.2 3.2 0.00 0.00 0.00 41 1014.0
20260505001223 16 359 6.4 6.4 0.00 0.00 0.00 40 1014.0
20260505000720 16 359 6.4 9.7 0.00 0.00 0.00 39 1013.9
20260505000219 16 64 1.6 3.2 0.00 0.00 0.00 41 1014.0
20260504235714 16 53 6.4 9.7 0.00 0.00 0.00 38 1013.8
20260504235210 16 19 3.2 4.8 0.00 0.00 0.00 39 1013.7
20260504234708 16 20 12.9 14.5 0.00 0.00 0.00 38 1013.8
20260504234205 16 51 9.7 17.7 0.00 0.00 0.00 40 1013.8
20260504233700 16 103 8.0 11.3 0.00 0.00 0.00 39 1013.8
20260504233156 16 115 6.4 9.7 0.00 0.00 0.00 38 1014.0
20260504232654 16 339 12.9 14.5 0.00 0.00 0.00 39 1014.1
20260504232151 16 74 14.5 17.7 0.00 0.00 0.00 39 1013.9
20260504231648 16 10 8.0 12.9 0.00 0.00 0.00 39 1013.9
20260504231144 16 29 4.8 4.8 0.00 0.00 0.00 39 1013.9
20260504230640 16 109 6.4 9.7 0.00 0.00 0.00 40 1013.9
20260504230139 16 37 11.3 12.9 0.00 0.00 0.00 39 1013.7
20260504225637 16 47 4.8 11.3 0.00 0.00 0.00 39 1013.8
20260504225133 17 0 3.2 6.4 0.00 0.00 0.00 40 1013.7
20260504224630 16 343 4.8 9.7 0.00 0.00 0.00 40 1013.7
20260504224127 16 59 3.2 4.8 0.00 0.00 0.00 40 1013.8
20260504223624 16 7 6.4 6.4 0.00 0.00 0.00 39 1013.8
20260504223120 16 66 3.2 4.8 0.00 0.00 0.00 38 1013.8
20260504222617 16 55 11.3 16.1 0.00 0.00 0.00 37 1013.8
20260504222114 16 15 1.6 3.2 0.00 0.00 0.00 41 1013.6
20260504221611 17 34 3.2 3.2 0.00 0.00 0.00 39 1013.4
20260504221108 16 21 3.2 3.2 0.00 0.00 0.00 39 1013.5
20260504220604 17 99 6.4 9.7 0.00 0.00 0.00 37 1013.5
20260504215558 17 131 6.4 6.4 0.00 0.00 0.00 38 1013.6
20260504215056 17 6 3.2 3.2 0.00 0.00 0.00 36 1013.6
20260504214551 17 39 8.0 9.7 0.00 0.00 0.00 38 1013.6
20260504214048 16 106 6.4 6.4 0.00 0.00 0.00 38 1013.5
20260504213544 16 90 6.4 9.7 0.00 0.00 0.00 39 1013.5
20260504213041 17 107 8.0 14.5 0.00 0.00 0.00 38 1013.5
20260504212537 17 19 6.4 9.7 0.00 0.00 0.00 39 1013.4
20260504212035 17 64 4.8 4.8 0.00 0.00 0.00 37 1013.4
20260504211531 16 69 0.0 1.6 0.00 0.00 0.00 40 1013.6
20260504211028 16 86 1.6 3.2 0.00 0.00 0.00 37 1013.5
20260504210525 16 85 6.4 9.7 0.00 0.00 0.00 39 1013.6
20260504210022 17 89 6.4 6.4 0.00 0.00 0.00 37 1013.6
20260504205520 17 96 9.7 11.3 0.00 0.00 0.00 37 1013.5
20260504205018 17 55 9.7 12.9 0.00 0.00 0.00 36 1013.5
20260504204515 17 18 3.2 4.8 0.00 0.00 0.00 38 1013.5
20260504204014 17 141 3.2 4.8 0.00 0.00 0.00 37 1013.5
20260504203512 17 89 9.7 12.9 0.00 0.00 0.00 38 1013.6
20260504203009 17 67 6.4 9.7 0.00 0.00 0.00 39 1013.6
20260504202505 17 20 1.6 3.2 0.00 0.00 0.00 38 1013.7
20260504202001 16 14 4.8 9.7 0.00 0.00 0.00 43 1013.5
20260504201459 16 101 6.4 9.7 0.00 0.00 0.00 40 1013.7
20260504200956 16 35 4.8 4.8 0.00 0.00 0.00 39 1013.6
20260504200453 16 118 3.2 4.8 0.00 0.00 0.00 40 1013.7
20260504195949 17 32 6.4 12.9 0.00 0.00 0.00 40 1013.6
20260504195445 17 104 12.9 14.5 0.00 0.00 0.00 37 1013.5
20260504194942 17 94 8.0 9.7 0.00 0.00 0.00 39 1013.7
20260504194438 17 120 4.8 6.4 0.00 0.00 0.00 39 1013.8
20260504193934 17 51 9.7 12.9 0.00 0.00 0.00 38 1013.6
20260504193432 16 12 1.6 1.6 0.00 0.00 0.00 42 1013.7
20260504192930 16 102 9.7 11.3 0.00 0.00 0.00 40 1013.8
20260504192427 17 67 1.6 3.2 0.00 0.00 0.00 37 1013.8
20260504191926 17 136 4.8 9.7 0.00 0.00 0.00 38 1013.9
20260504191424 16 61 6.4 6.4 0.00 0.00 0.00 37 1013.8
20260504190919 17 335 3.2 3.2 0.00 0.00 0.00 37 1013.8
20260504190414 16 120 4.8 9.7 0.00 0.00 0.00 39 1013.8
20260504185911 16 89 4.8 6.4 0.00 0.00 0.00 40 1013.8
20260504185409 17 5 6.4 9.7 0.00 0.00 0.00 39 1014.0
20260504184904 17 327 8.0 11.3 0.00 0.00 0.00 38 1013.8
20260504184400 17 111 3.2 4.8 0.00 0.00 0.00 38 1014.1
20260504183856 16 128 8.0 9.7 0.00 0.00 0.00 41 1014.1
20260504183354 16 82 9.7 12.9 0.00 0.00 0.00 36 1014.1
20260504182851 17 113 1.6 3.2 0.00 0.00 0.00 38 1013.9
20260504182349 16 44 3.2 3.2 0.00 0.00 0.00 40 1014.0
20260504181845 16 62 1.6 3.2 0.00 0.00 0.00 36 1013.9
20260504181343 16 114 6.4 6.4 0.00 0.00 0.00 40 1014.2
20260504180842 16 63 4.8 6.4 0.00 0.00 0.00 38 1014.0
20260504180340 16 114 9.7 11.3 0.00 0.00 0.00 37 1014.2
20260504175838 16 70 3.2 4.8 0.00 0.00 0.00 42 1014.1
20260504175334 16 64 3.2 4.8 0.00 0.00 0.00 37 1014.1
20260504174832 16 28 6.4 6.4 0.00 0.00 0.00 39 1014.1
20260504174329 16 40 6.4 6.4 0.00 0.00 0.00 42 1014.2
20260504173826 16 97 3.2 4.8 0.00 0.00 0.00 38 1014.2
20260504173323 16 116 6.4 9.7 0.00 0.00 0.00 37 1014.4
20260504172820 16 29 3.2 3.2 0.00 0.00 0.00 38 1014.4
20260504172316 15 174 6.4 6.4 0.00 0.00 0.00 37 1014.4
20260504171812 16 80 9.7 11.3 0.00 0.00 0.00 39 1014.2
20260504171310 16 16 1.6 3.2 0.00 0.00 0.00 40 1014.4
20260504170807 16 1 6.4 6.4 0.00 0.00 0.00 40 1014.2
20260504170304 15 40 0.0 1.6 0.00 0.00 0.00 38 1014.1
20260504160222 14 82 4.8 6.4 0.00 0.00 0.00 40 1014.5
20260504151150 13 25 6.4 6.4 0.00 0.00 0.00 44 1014.7
20260504150647 13 11 6.4 6.4 0.00 0.00 0.00 47 1014.6
20260504150144 13 15 8.0 11.3 0.00 0.00 0.00 45 1014.9
20260504141113 12 14 1.6 3.2 0.00 0.00 0.00 46 1014.5
20260504140610 11 326 4.8 6.4 0.00 0.00 0.00 47 1014.6
20260504140105 11 356 3.2 3.2 0.00 0.00 0.00 48 1014.7
20260504130534 10 315 8.0 9.7 0.00 0.00 0.00 47 1013.8
20260504110421 11 293 4.8 4.8 0.00 0.00 0.00 44 1013.0
20260504100338 12 322 4.8 4.8 0.00 0.00 0.00 43 1012.6
20260504081731 14 357 9.7 12.9 0.00 0.00 0.00 40 1011.8
20260504081228 15 20 6.4 6.4 0.00 0.00 0.00 40 1011.5
20260504080724 15 321 9.7 12.9 0.00 0.00 0.00 39 1011.3
20260504080220 15 350 6.4 6.4 0.00 0.00 0.00 40 1011.5
20260504070148 11 259 4.8 4.8 0.00 0.00 0.00 62 1010.6
20260504060109 10 269 6.4 6.4 0.00 0.00 0.00 69 1009.6